Flag for U.S.A. Weather past 2 weeks in Citrus Heights, California, U.S.A.

Now
54 °F

Fog.


Feels Like: 53 °F
Forecast: 50 / 63 °F
Wind: 5 mph from North

Location: Mather Field

Current Time: Dec 22, 2014 at 7:00:10 AM

Latest Report: Dec 22, 2014 at 5:50 AM


Visibility: 1 mi

Pressure: 30.25 "Hg

Humidity: 100%

Dew point: 54 °F

Location of Citrus HeightsLocation

Historic Weather in Citrus Heights — Graph

°F

Citrus Heights temperature yesterday

Maximum temperature yesterday: 63 °F (at 12:48 PM)
Minimum temperature yesterday: 48 °F (at 11:46 PM)
Average temperature yesterday: 57 °F

Past Weeks' High & Low Weather Summary

 TemperatureHumidityPressure
High63 °F (Dec 7, 1:55 PM)100% (Dec 7, 5:45 AM)30.30 "Hg (Dec 7, 5:45 AM)
Low41 °F (Dec 14, 4:48 AM)59% (Dec 8, 1:45 PM)29.55 "Hg (Dec 11, 6:45 AM)
Average52 °F96%30.06 "Hg
* Reported Dec 7 5:45 AM — Dec 22 5:50 AM, Citrus Heights, Weather by CustomWeather, © 2014

Note: Actual official high and low records may vary slightly from our data, if they occured in-between our weather recording intervals... More about our weather records

Advertising

Citrus Heights weather history for previous 24 hours

 ConditionsComfort  
Time TempWeatherWind HumidityBarometerVisibility
5:50 AM
Dec 22
54 °FFog.5 mph100%30.25 "Hg1 mi
4:50 AM54 °FFog.5 mph100%30.25 "Hg0 mi
3:50 AM54 °FFog.6 mph100%30.26 "Hg0 mi
3:00 AM54 °FFog.7 mph100%30.26 "Hg0 mi
1:46 AM52 °FFog.3 mph100%30.26 "Hg0 mi
12:46 AM52 °FFog.3 mph100%30.26 "Hg0 mi
11:46 PM
Dec 21
48 °FFog.No wind100%30.27 "Hg5 mi
10:46 PM52 °FClear.No wind100%30.27 "Hg8 mi
8:46 PM52 °FPassing clouds.3 mph100%30.27 "Hg10 mi
7:46 PM54 °FPassing clouds.No wind100%30.26 "Hg10 mi
6:46 PM54 °FPassing clouds.No wind100%30.26 "Hg10 mi
5:50 PM55 °FPassing clouds.No wind100%30.25 "Hg10 mi
4:55 PM61 °FPassing clouds.3 mph100%30.25 "Hg10 mi
3:55 PM63 °FPartly sunny.3 mph100%30.24 "Hg10 mi
2:55 PM63 °FBroken clouds.3 mph100%30.24 "Hg10 mi
1:47 PM63 °FBroken clouds.5 mph100%30.25 "Hg10 mi
12:48 PM63 °FOvercast.6 mph100%30.26 "Hg10 mi
11:45 AM61 °FOvercast.6 mph100%30.28 "Hg10 mi
10:45 AM59 °FOvercast.8 mph100%30.30 "Hg10 mi
9:48 AM57 °FLow clouds.9 mph100%30.30 "Hg10 mi
8:45 AM57 °FLow clouds.8 mph100%30.29 "Hg10 mi
7:45 AM55 °FOvercast.8 mph100%30.27 "Hg10 mi
Weather by CustomWeather, © 2014

See weather overviewHow to use our weather pages